Location: Bothwell
(42.3833°S, 147.0000°E)
Time: 23:42:55
(UTC+10:00)

METEOR M2 - Visible Passes

Search period start: 01 October 2022 00:00
Search period end: 11 October 2022 01:00
Orbit: 818 x 827 km, 98.4° (Epoch: 01 October)

Date Brightness Start Highest point End Pass type
(mag) Time Alt. Az. Time Alt. Az. Time Alt. Az.
01 Oct ? 05:03:09 10° ENE 05:07:38 27° ESE 05:12:09 10° S visible
01 Oct ? 18:59:07 10° SSE 19:04:35 79° ENE 19:09:59 10° N visible
01 Oct ? 20:40:57 10° SSW 20:44:03 16° WSW 20:47:10 10° W visible
02 Oct ? 05:44:12 10° ENE 05:47:55 19° ESE 05:51:38 10° SSE visible
02 Oct ? 19:39:17 10° SSE 19:44:36 52° E 19:49:50 10° N visible
02 Oct ? 21:20:15 10° SSW 21:24:22 23° WSW 21:28:28 10° WNW visible
03 Oct ? 05:25:50 10° E 05:28:15 13° ESE 05:30:41 10° SSE visible
03 Oct ? 20:59:51 10° S 21:04:37 32° WSW 21:09:21 10° NW visible
04 Oct ? 20:39:37 10° S 20:44:49 47° WSW 20:49:57 10° NW visible
05 Oct ? 20:19:31 10° S 20:24:57 70° WSW 20:30:17 10° NNW visible
05 Oct ? 22:03:17 10° SW 22:04:06 10° SW 22:04:54 10° WSW visible
06 Oct ? 06:03:33 10° ENE 06:08:03 28° ESE 06:12:36 10° S visible
06 Oct ? 19:59:33 10° SSE 20:05:01 80° ENE 20:10:24 10° N visible
06 Oct ? 21:41:26 10° SSW 21:44:29 15° WSW 21:47:30 10° W visible
07 Oct ? 05:44:35 10° ENE 05:48:20 19° ESE 05:52:06 10° SSE visible
07 Oct ? 21:20:43 10° SSW 21:24:47 22° WSW 21:28:50 10° WNW visible
08 Oct ? 05:26:10 10° E 05:28:40 13° ESE 05:31:11 10° SSE visible
08 Oct ? 21:00:18 10° S 21:05:03 31° WSW 21:09:44 10° NW visible
09 Oct ? 20:40:04 10° S 20:45:14 46° WSW 20:50:21 10° NW visible
10 Oct ? 20:19:58 10° S 20:25:22 68° WSW 20:30:42 10° NNW visible
10 Oct ? 22:04:10 10° SW 22:04:30 10° SW 22:04:50 10° WSW visible
